Location: Bidart
(43.4376°N, 1.5913°W)
Time: 05:50:58
(UTC+00:00)

H-2A DEB - Pass Details

Date: 19 April 2026
Orbit: 584 x 592 km, 98.2° (Epoch: 15 May)

Event Time Altitude Azimuth Distance (km) Brightness Sun altitude
Exits shadow 02:12:14 18° 327° (NNW) 1,476 ? -28.3°
Drops below altitude 10° 02:13:26 10° 334° (NNW) 1,929 ? -28.1°
Sets 02:15:41 0° 341° (NNW) 2,836 ? -27.9°
